[[{"header":{"parameterUnit":"m.s-1","parameterCategory":1,"la1":30.2991,"la2":30.254,"lo1":-89.0895,"lo2":-89.0444,"dy":0.0017,"dx":0.0017,"nx":28,"ny":28,"refTime":"2025-01-26T03:00:00:Z","depth":0,"parameterNumber":2,"parameterNumberName":"U-component_of_WINDS"},"data":[0,0,0,0,0,0,0,0,0,0,0,0,0,0,0,0,0,0,0,0,0,0,0,0,0,0,0,0,0,0,0,0,0,0,0,0,0,0,0,0,0,0,0,0,0,0,0,0,0,0,0,0,0,0,0,0,0,0,2.2437,2.2437,0,2.2462,2.2462,2.2463,2.2425,2.2424,2.2422,2.2421,2.2447,2.2448,2.245,0,0,0,0,0,0,0,0,0,0,0,0,0,2.2357,2.2359,2.2437,2.2437,2.2437,2.2462,2.2462,2.2463,2.2425,2.2424,2.2422,2.2421,2.2446,2.2448,2.2451,0,0,0,0,0,0,0,0,0,0,0,0,0,2.2388,2.2359,2.2437,2.2422,2.2421,2.2462,2.2462,2.2463,2.2426,2.2424,2.2422,2.242,2.2445,2.2448,2.2451,2.2508,0,0,2.246,2.2461,0,0,0,0,0,0,0,0,2.2386,2.2391,2.2424,2.2423,2.2422,2.2438,2.2444,2.2478,2.2426,2.2424,2.2421,2.2419,2.2445,2.2448,2.2457,2.2509,2.251,2.246,2.2462,2.2463,2.2464,0,0,0,0,0,0,0,2.2384,2.239,2.2447,2.2424,2.2423,2.2414,2.2416,2.245,2.2445,2.2424,2.2421,2.2425,2.2445,2.2455,2.2458,2.2511,2.246,2.2462,2.2464,2.2465,2.2613,2.2615,0,0,0,0,0,0,2.2384,2.2388,2.2446,2.2447,2.2399,2.2417,2.242,2.2435,2.2445,2.2444,2.2426,2.2423,2.2451,2.2454,2.2458,2.2527,2.2463,2.2465,2.2467,2.2611,2.2613,2.2616,0,0,0,0,0,0,2.2382,2.2389,2.2445,2.2417,2.2424,2.2421,2.2438,2.2436,2.2446,2.2447,2.2446,2.2437,2.2449,2.2454,2.2496,2.2528,2.2467,2.2469,2.2608,2.2612,2.2615,2.2665,0,0,0,0,0,0,2.238,2.2389,2.241,2.2418,2.2425,2.2482,2.244,2.2438,2.2452,2.2447,2.2457,2.2457,2.2448,2.2492,2.2499,2.2531,2.2472,2.2605,2.261,2.2614,2.2661,2.267,2.2678,0,0,0,0,0,2.2377,2.2423,2.2412,2.2419,2.2452,2.2484,2.2488,2.2478,2.2454,2.2476,2.2477,2.2456,2.2523,2.2497,2.2504,2.2537,2.2603,2.2608,2.2613,2.2657,2.2668,2.2677,0,0,0,0,0,0,2.2418,2.2423,2.2411,2.246,2.2472,2.2478,2.2505,2.249,2.2508,2.2504,2.2489,2.2492,2.2538,2.2541,2.2512,2.2594,2.2559,2.2566,2.259,2.26,2.2609,2.2607,2.2474,0,0,0,0,0,2.2433,2.2459,2.2462,2.2505,2.2512,2.2508,2.2521,2.2512,2.2524,2.2529,2.2532,2.2545,2.2569,2.2585,2.2606,2.2661,2.2663,2.2687,2.2696,2.2703,2.2709,2.274,2.2751,2.2632,2.2632,2.2632,0,0,2.2464,2.247,2.2487,2.2514,2.2522,2.255,2.2512,2.2542,2.2563,2.2533,2.2574,2.2577,2.259,2.2639,2.2661,2.2644,2.2742,2.2709,2.2714,2.2717,2.2746,2.2757,2.2767,2.2636,2.2635,2.2634,0,0,2.2534,2.2541,2.2579,2.2588,2.2601,2.2599,2.2608,2.2616,2.2617,2.2658,2.2637,2.2661,2.2702,2.2713,2.2724,2.2801,2.2784,2.2808,2.2853,2.2883,2.2892,2.2901,2.293,2.294,2.2814,2.2814,2.2814,0,2.2571,2.2612,2.26,2.2633,2.2646,2.2621,2.266,2.2669,2.2689,2.2699,2.2679,2.2732,2.2738,2.2791,2.281,2.2819,2.283,2.2807,2.2892,2.29,2.2908,2.2935,2.2946,2.2817,2.2817,2.2817,2.2816,0,2.2657,2.2686,2.2715,2.2735,2.2752,2.2787,2.2781,2.2799,2.279,2.2789,2.2832,2.2839,2.2863,2.2875,2.2865,2.2926,2.2915,2.2894,2.2859,2.2922,2.2948,2.2958,2.2822,2.2821,2.282,2.2819,0,0,2.2753,2.2768,2.2779,2.2789,2.2803,2.2825,2.286,2.2884,2.2901,2.2915,2.2945,2.2982,2.2963,2.2975,2.2966,2.2993,2.3056,2.2969,2.2969,2.2986,2.3126,2.3143,2.3155,2.3044,2.3046,2.3048,2.3126,0,2.2824,2.2885,2.2877,2.2935,2.2963,2.2941,2.2972,2.2984,2.2985,2.3008,2.3009,2.3036,2.3008,2.3016,2.3041,2.3043,2.3084,2.3037,2.3073,2.3074,2.3071,2.3168,2.3186,2.3259,2.3135,2.3137,2.3138,0,2.2915,2.2935,2.2997,2.3009,2.302,2.3048,2.307,2.3093,2.3107,2.3106,2.3121,2.3108,2.3144,2.3108,2.3158,2.3127,2.3141,2.3144,2.3147,2.315,2.3111,2.3176,2.3281,2.3293,2.3154,2.3152,2.3151,0,2.2981,2.3023,2.3066,2.3075,2.3089,2.311,2.3117,2.3129,2.3144,2.3164,2.3174,2.3197,2.3211,2.3229,2.3223,2.3198,2.3276,2.3239,2.3276,2.3277,2.3294,2.3293,2.3405,2.3302,2.3302,2.3301,2.3301,0,2.3063,2.3102,2.3096,2.3123,2.3166,2.3157,2.32,2.3204,2.3216,2.3243,2.3225,2.3251,2.3241,2.3267,2.3263,2.3306,2.3312,2.3312,2.3311,2.3315,2.3315,2.3324,2.332,2.3304,2.3304,2.3303,2.3303,0,2.3143,2.3141,2.3187,2.3197,2.3201,2.3233,2.3242,2.3267,2.3267,2.3302,2.331,2.331,2.334,2.3336,2.3368,2.3366,2.342,2.3412,2.3416,2.3414,2.3453,2.345,2.3575,2.3592,2.3477,2.3478,2.3479,0,2.3196,2.3226,2.324,2.3257,2.3266,2.3294,2.3311,2.3303,2.332,2.334,2.3363,2.3392,2.3414,2.3463,2.3466,2.3491,2.3484,2.3527,2.3488,2.3492,2.3487,2.3486,2.3489,2.3534,2.3536,2.3537,2.3538,0,2.329,2.3288,2.3312,2.3337,2.3358,2.3377,2.3394,2.3409,2.3403,2.3424,2.3455,2.3472,2.3507,2.3536,2.356,2.3567,2.3552,2.355,2.356,2.3565,2.3566,2.3568,2.3438,2.3547,2.3546,2.3545,2.3545,2.3545,2.3359,2.3385,2.34,2.3428,2.3441,2.3458,2.3483,2.3487,2.3513,2.354,2.3534,2.3569,2.3584,2.3616,2.3626,2.3654,2.3638,2.3653,2.3656,2.3661,2.3666,2.3562,2.3658,2.3657,2.3657,2.3657,2.3657,0,2.3453,2.3462,2.3488,2.3514,2.3537,2.3521,2.354,2.356,2.3591,2.3607,2.363,2.3666,2.3694,2.37,2.3728,2.3749,2.3743,2.3757,2.3755,2.3758,2.3677,2.3666,2.3761,2.3761,2.3761,2.3761,2.3761,2.3761,2.3505,2.3549,2.3549,2.36,2.3609,2.3644,2.3656,2.3672,2.3685,2.3726,2.375,2.3754,2.3766,2.3795,2.3821,2.3822,2.3833,2.385,2.3849,2.3773,2.3763,2.3753,2.3743,2.3852,2.3852,2.3927,2.3927,2.3928]},{"header":{"parameterUnit":"m.s-1","parameterCategory":1,"la1":30.2991,"la2":30.254,"lo1":-89.0895,"lo2":-89.0444,"dy":0.0017,"dx":0.0017,"nx":28,"ny":28,"refTime":"2025-01-26T03:00:00:Z","depth":0,"parameterNumber":3,"parameterNumberName":"V-component_of_WINDS"},"data":[0,0,0,0,0,0,0,0,0,0,0,0,0,0,0,0,0,0,0,0,0,0,0,0,0,0,0,0,0,0,0,0,0,0,0,0,0,0,0,0,0,0,0,0,0,0,0,0,0,0,0,0,0,0,0,0,0,0,0.8286,0.8288,0,0.8519,0.8522,0.8525,0.8574,0.8572,0.857,0.8569,0.8811,0.8819,0.8827,0,0,0,0,0,0,0,0,0,0,0,0,0,0.7885,0.7892,0.8286,0.8289,0.8292,0.8519,0.8522,0.8525,0.8574,0.8572,0.857,0.8568,0.8809,0.8818,0.8828,0,0,0,0,0,0,0,0,0,0,0,0,0,0.8083,0.7895,0.8285,0.8343,0.8351,0.8518,0.8522,0.8526,0.8575,0.8572,0.8569,0.8567,0.8805,0.8817,0.8829,0.8956,0,0,0.8866,0.8871,0,0,0,0,0,0,0,0,0.8072,0.8098,0.8332,0.834,0.8348,0.8515,0.847,0.867,0.8575,0.849,0.8569,0.8566,0.8715,0.8734,0.8784,0.8968,0.8978,0.8867,0.8875,0.888,0.8883,0,0,0,0,0,0,0,0.8058,0.8088,0.8378,0.8335,0.8345,0.8359,0.8384,0.8508,0.8614,0.8497,0.8501,0.8528,0.8719,0.8772,0.879,0.8982,0.8867,0.8878,0.8885,0.889,0.9281,0.9284,0,0,0,0,0,0,0.8034,0.8076,0.8371,0.8385,0.8201,0.8368,0.8396,0.8464,0.8613,0.8633,0.853,0.8529,0.8753,0.8776,0.8799,0.8958,0.888,0.8891,0.8898,0.9278,0.9282,0.9286,0,0,0,0,0,0,0.8025,0.8059,0.8361,0.8232,0.8271,0.8378,0.8453,0.847,0.8523,0.8638,0.8657,0.8565,0.8752,0.8782,0.8917,0.8967,0.8897,0.8908,0.9275,0.928,0.9284,0.9278,0,0,0,0,0,0,0.8013,0.8056,0.8105,0.8233,0.8278,0.8475,0.8457,0.8476,0.8544,0.8545,0.8676,0.8695,0.8752,0.8898,0.8929,0.8983,0.8917,0.9271,0.9277,0.9282,0.9274,0.9281,0.9288,0,0,0,0,0,0.7999,0.8094,0.8107,0.8142,0.8341,0.8477,0.8504,0.8566,0.8547,0.8598,0.8671,0.8691,0.8956,0.8912,0.8946,0.9005,0.9268,0.9275,0.9282,0.9271,0.928,0.9288,0,0,0,0,0,0,0.7972,0.8112,0.8128,0.8268,0.836,0.8485,0.8551,0.8574,0.8675,0.8672,0.8747,0.8776,0.8907,0.8969,0.8917,0.9136,0.9111,0.9125,0.9091,0.9101,0.9108,0.9091,0.8927,0,0,0,0,0,0.7981,0.8079,0.8197,0.8309,0.8355,0.8445,0.8506,0.8546,0.8646,0.8686,0.8769,0.8865,0.8971,0.9039,0.9142,0.9282,0.9312,0.9339,0.9346,0.9351,0.9364,0.9444,0.9458,0.9309,0.9309,0.9309,0,0,0.8004,0.8093,0.815,0.8306,0.8383,0.8483,0.8478,0.8584,0.866,0.8702,0.8835,0.8899,0.9011,0.9149,0.9215,0.9206,0.9411,0.936,0.9364,0.9374,0.9452,0.9467,0.9479,0.9313,0.9313,0.9312,0,0,0.8097,0.8173,0.8275,0.8351,0.8466,0.8525,0.8549,0.8671,0.8715,0.8849,0.8882,0.8974,0.9153,0.9232,0.9296,0.9416,0.9438,0.9447,0.9486,0.9563,0.9575,0.9585,0.963,0.9645,0.9459,0.9459,0.9459,0,0.8111,0.8263,0.8325,0.8431,0.8498,0.8539,0.8643,0.8714,0.8857,0.8904,0.8891,0.9117,0.9195,0.9353,0.9382,0.9431,0.9463,0.9434,0.9568,0.9579,0.959,0.9634,0.965,0.9459,0.9459,0.9459,0.9459,0,0.8275,0.838,0.8449,0.8585,0.866,0.8764,0.8843,0.8912,0.8944,0.9005,0.9141,0.9236,0.9359,0.9399,0.9432,0.9562,0.9553,0.9552,0.953,0.9604,0.9646,0.9663,0.946,0.946,0.946,0.946,0,0,0.8361,0.8527,0.8552,0.8614,0.8743,0.8826,0.8932,0.9051,0.911,0.9206,0.9298,0.9448,0.9448,0.952,0.9563,0.963,0.9721,0.9622,0.9626,0.9639,0.9871,0.9872,0.9891,0.9735,0.9738,0.9741,0.9863,0,0.847,0.8661,0.8719,0.8879,0.8977,0.9015,0.9108,0.9197,0.9256,0.9349,0.9414,0.9519,0.9511,0.9555,0.9623,0.9695,0.9769,0.9687,0.9823,0.9828,0.9797,0.9913,0.9915,1.0025,0.9879,0.9882,0.9884,0,0.8625,0.8723,0.8892,0.9008,0.9052,0.9134,0.9248,0.9335,0.9437,0.9475,0.9555,0.9591,0.9704,0.9672,0.983,0.9773,0.9832,0.9876,0.9881,0.9899,0.9862,0.9936,1.0061,1.0079,0.991,0.9908,0.9906,0,0.8673,0.8847,0.8971,0.9023,0.9161,0.9218,0.9278,0.9377,0.9445,0.9544,0.959,0.9701,0.9763,0.9848,0.9914,0.9885,1.0067,1.004,1.0103,1.0102,1.0143,1.014,1.0282,1.0175,1.0175,1.0175,1.0174,0,0.8791,0.8894,0.8994,0.9071,0.9187,0.9252,0.9366,0.9428,0.9516,0.9606,0.9645,0.9729,0.981,0.9904,0.9956,1.008,1.0107,1.0142,1.0156,1.0141,1.0136,1.0183,1.0178,1.0179,1.0178,1.0177,1.0177,0,0.8866,0.8937,0.9075,0.9193,0.9225,0.9306,0.9408,0.9484,0.9543,0.9656,0.9687,0.978,0.9894,0.9967,1.0112,1.0147,1.0283,1.0292,1.0248,1.0255,1.0315,1.0309,1.0494,1.0523,1.0394,1.0395,1.0396,0,0.8938,0.9018,0.9144,0.9207,0.9267,0.9367,0.9436,0.9503,0.9574,0.9695,0.9757,0.9873,0.9969,1.0149,1.023,1.0341,1.0356,1.0413,1.0373,1.0356,1.036,1.0356,1.0365,1.042,1.0421,1.0422,1.0423,0,0.906,0.9091,0.9188,0.9298,0.9379,0.9469,0.9559,0.9608,0.969,0.9768,0.9883,0.9958,1.0105,1.022,1.0338,1.0401,1.0427,1.0434,1.0455,1.0442,1.0415,1.0433,1.0269,1.043,1.043,1.0429,1.0429,1.0428,0.9138,0.9211,0.9311,0.9418,0.9492,0.9575,0.9653,0.972,0.9818,0.9942,0.9976,1.0097,1.0197,1.0358,1.0423,1.052,1.0513,1.0543,1.0551,1.0558,1.056,1.0396,1.0541,1.0541,1.0541,1.0541,1.0541,0,0.9264,0.9329,0.9427,0.9551,0.9636,0.9649,0.9749,0.982,0.9926,1.0016,1.0109,1.0243,1.0354,1.0443,1.0558,1.0618,1.0633,1.0647,1.0645,1.0659,1.0559,1.053,1.0633,1.0633,1.0633,1.0633,1.0633,1.0633,0.9339,0.9464,0.9506,0.9668,0.9733,0.9852,0.9908,0.9985,1.0057,1.0204,1.0296,1.0353,1.0443,1.0565,1.0668,1.0691,1.0733,1.0745,1.0771,1.0676,1.0666,1.0657,1.063,1.0753,1.0753,1.0864,1.0865,1.0866]}]]